Location: Ethel Rock
(53.4667°N, 4.5667°W)
Time: 04:10:33
(UTC+00:00)

Cosmos 1656 - Pass Details

Date: 24 October 2020
Orbit: 796 x 851 km, 71.1° (Epoch: 25 November)

Event Time Altitude Azimuth Distance (km) Brightness Sun altitude
Exits shadow 05:08:18 14° 317° (NW) 2,236 5.5 -17.6°
Maximum altitude 05:13:00 46° 249° (WSW) 1,137 3.9 -16.9°
Drops below altitude 10° 05:18:24 10° 178° (S) 2,472 6.1 -16.1°
Sets 05:20:55 0° 172° (S) 3,400 6.9 -15.7°
